Starlink 37145

operational
NORAD ID: 68549 Int'l Des: 2026-070 Owner: SPXS Country: US Constellation: starlink
LEOCIRCULAR

About Starlink 37145

Description loading...

Live Position

Loading 3D Globe...

Upcoming Passes

Altitude History

Altitude vs Time

uPlot chart will show altitude changes over time

Two-Line Element Set

1 68549C 26070G 26093.89909722 -.00056196 00000+0 -69152-4 0 933
2 68549 53.1620 259.6031 0008001 283.4568 284.8051 16.07139788 11
Epoch: Apr 3, 2026 • Age: 29 hours

Current Status

Altitude 265.2 km
Velocity 7.75 km/s
Sub-Earth Point 47.34°N, 121.89°E
Launch Date Apr 2, 2026
Age 1 days
Type internet

Technical Details

Classification Payload
Mass 575.00 kg
Dry Mass 530.00 kg
Total Mass 575.00 kg
Length 0.30 m
Diameter 4.10 m
Span 29.00 m
Shape Box + pan
Manufacturer SPXS
Bus Type Starlink V2MO
Phase Status In Orbit
Owner/State SPXS/US

Large Constellations

Loading constellations...